Terug naar catalogus

STARLINK-2144

ActiefCommunicatieVLEO
NORAD 47734·PAYLOAD·🇺🇸 United States

Gelanceerd Mar 4, 2021 vanaf Cape Canaveral Space Force Station

Loading…

Volgende Passages (komende 24 uur)

TLE

VersSource: CelesTrak SupGP

Epoch: Sep 14, 2026, 20:06 UTC

1 47734C 21017N   26257.83798611  .00056775  00000+0  18259-2 0  2574
2 47734  53.1601  43.6492 0001096  79.1017  43.0102 15.31671741    19

Volg STARLINK-2144 in realtime met AllMySat

Download on the App Store